Tracking 26303 objects as of 1-Dec-2022
HD Live streaming from Space Station
objects crossing your sky now

USA 122

Track USA 122 now!
10-day predictions
USA 122 is classified as:


NORAD ID: 23862
Int'l Code: 1996-029D
Perigee: 533.2 km
Apogee: 1,690.3 km
Inclination: 63.3 °
Period: 107.4 minutes
Semi major axis: 7482 km
RCS: Unknown
Launch date: May 12, 1996
Source: United States (US)
Launch site: AIR FORCE WESTERN TEST RANGE (AFWTR)
aabbcc
Your satellite tracking list
Your tracking list is empty




NASA's NSSDC Master Catalog

Two Line Element Set (TLE):
1 23862U 96029D   22332.12804049 0.00000400  00000-0  11364-3 0    02
2 23862  63.3421 326.5733 0773128  32.1062 327.8938 13.41252866    01
Source of the keplerian elements: McCants